Regional Weather Roundup
Issued by NWS Cleveland, OH

Home | Current Version | Previous Version | Graphics & Text | Print | Product List | Glossary On
Versions: 1 2 3 4 5 6 7 8 9 10 11 12 13 14 15 16 17 18 19 20 21 22 23 24 25 26 27 28 29 30 31 32 33 34 35 36 37 38 39 40 41 42 43 44 45 46 47 48 49 50
000
ASUS41 KCLE 021102
RWRCLE
OHIO REGIONAL WEATHER ROUNDUP
NATIONAL WEATHER SERVICE CLEVELAND, OH
700 AM EDT SUN AUG 02 2015

NOTE: "FAIR" INDICATES FEW OR NO CLOUDS BELOW 12,000 FEET WITH NO
SIGNIFICANT WEATHER AND/OR OBSTRUCTIONS TO VISIBILITY.

OHZ001>008-015>018-024>027-034-035-043-044-021200-
   NORTHWEST OHIO

CITY           SKY/WX    TMP DP  RH WIND       PRES   REMARKS
DEFIANCE       CLEAR     66  61  84 SW5       29.92S
FINDLAY        CLEAR     67  59  75 SW8       29.92R
TOLEDO EXPRESS CLEAR     64  60  87 SW6       29.90S
TOLEDO EXEC    CLEAR     65  60  84 SW8       29.91S
LIMA           CLEAR     66  58  75 SW8       29.95R
$$

OHZ009>014-019>023-028>033-038-089-021200-
   NORTHEAST OHIO

CITY           SKY/WX    TMP DP  RH WIND       PRES   REMARKS
CLE-HOPKINS    CLEAR     65  57  75 SW7       29.93R
CLE-LAKEFRONT  CLEAR     70  57  63 SW9       29.90R
CUY CO. ARPT   CLEAR     68  57  68 S8        29.92
LORAIN-ELYRIA  CLEAR     61  57  87 SW5       29.92S
ASHTABULA      PTCLDY    60  56  86 CALM      29.93R
AKRON-CANTON   MOCLDY    66  58  75 SW6       29.94S
WOOSTER        PTCLDY    63  59  87 SW5       29.95R
MANSFIELD      CLEAR     67  58  72 SW9       29.95R
YOUNGSTOWN     MOCLDY    63  57  81 S7        29.94R
$$

OHZ042-051>053-060>062-070>072-077>081-021200-
  SOUTHWEST OHIO

CITY           SKY/WX    TMP DP  RH WIND       PRES   REMARKS
CINC-COVINGTON PTCLDY    61  59  93 CALM      29.98S
CINC-LUNKEN    PTCLDY    61  61 100 CALM      29.98S
HAMILTON       CLEAR     60  59  96 CALM      29.98S
DAYTON         PTCLDY    64  59  83 SW8       29.98R
WRIGHT-PAT AFB NOT AVBL
DAYTON GENERAL CLEAR     64  58  80 CALM      29.97S
WILMINGTON     PTCLDY    61  56  83 S3        29.98S
$$

OHZ036-037-039>041-045>050-054>059-063>069-073>076-082>088-021200-
  CENTRAL AND SOUTHEAST OHIO

CITY           SKY/WX    TMP DP  RH WIND       PRES   REMARKS
COLUMBUS       PTCLDY    63  58  83 SE5       29.96S
OSU AIRPORT    CLEAR     66  57  72 SW6       29.96S
BOLTON FIELD   NOT AVBL
RICKENBACK AFB CLEAR     60  58  92 S3        29.96S
NEWARK         PTCLDY    60  58  92 CALM      29.96S
MARION         CLEAR     67  57  70 SW7       29.95R
LANCASTER      CLEAR     58  55  90 CALM      29.97S
ZANESVILLE     PTCLDY    60  56  86 CALM      29.97R
NEW PHILLY     CLOUDY    63  61  93 CALM      29.96S
$$


USA.gov is the U.S. government's official web portal to all federal, state and local government web resources and services.